Location: Gammelsbach
(49.5261°N, 8.9630°E)
Time: 15:34:54
(UTC+00:00)

Meteor 1-21 - Pass Details

Date: 17 June 2025
Orbit: 843 x 886 km, 81.2° (Epoch: 20 July)

Event Time Altitude Azimuth Distance (km) Brightness Sun altitude
Exits shadow 21:17:23 - 192° (SSW) 2,820 6.5 -11.7°
Reaches altitude 10° 21:18:13 10° 192° (SSW) 2,503 6.2 -11.8°
Maximum altitude 21:23:55 86° 280° (W) 883 4.3 -12.2°
Drops below altitude 10° 21:29:45 10° 11° (NNE) 2,548 7.5 -12.7°
Sets 21:32:13 0° 12° (NNE) 3,496 8.3 -12.9°
